This is the latest recevied weather packets stored in our database for station/object M7PDA-1. If no packets are shown the sender has not sent any weather packets the latest 10 day(s).
| Time | Temp. | Humidity | Pressure | Rain* | Wind** | Luminosity | Snow |
|---|---|---|---|---|---|---|---|
| 1777734357 | 18.33° C | 52% | 1015.5 hPa | - | - | - | - |
| 1777733456 | 17.78° C | 54% | 1016 hPa | - | - | - | - |
| 1777732555 | 18.33° C | 55% | 1016.3 hPa | - | - | - | - |
| 1777731655 | 17.78° C | 54% | 1016.5 hPa | - | - | - | - |
| 1777730754 | 17.22° C | 55% | 1016.7 hPa | - | - | - | - |
| 1777729853 | 18.33° C | 54% | 1016.7 hPa | - | - | - | - |
| 1777728952 | 17.78° C | 54% | 1016.8 hPa | - | - | - | - |
| 1777728052 | 18.33° C | 54% | 1016.6 hPa | - | - | - | - |
| 1777727151 | 16.67° C | 55% | 1016.9 hPa | - | - | - | - |
| 1777726250 | 18.33° C | 55% | 1017.2 hPa | - | - | - | - |
| 1777725349 | 16.67° C | 56% | 1017.5 hPa | - | - | - | - |
| 1777724449 | 16.67° C | 58% | 1017.8 hPa | - | - | - | - |
| 1777723548 | 16.67° C | 60% | 1018 hPa | - | - | - | - |
| 1777722647 | 17.78° C | 63% | 1018.1 hPa | - | - | - | - |
| 1777721746 | 16.67° C | 65% | 1018.4 hPa | - | - | - | - |
| 1777720845 | 15.56° C | 67% | 1018.5 hPa | - | - | - | - |
| 1777719945 | 15° C | 67% | 1018.5 hPa | - | - | - | - |
| 1777719043 | 15.56° C | 67% | 1018.5 hPa | - | - | - | - |
| 1777718142 | 15° C | 69% | 1018.5 hPa | - | - | - | - |
| 1777717242 | 15.56° C | 67% | 1018.9 hPa | - | - | - | - |
| 1777716341 | 15° C | 70% | 1018.8 hPa | - | - | - | - |
| 1777715440 | 14.44° C | 72% | 1019.1 hPa | - | - | - | - |
| 1777714539 | 15° C | 73% | 1018.9 hPa | - | - | - | - |
| 1777713639 | 13.89° C | 78% | 1019 hPa | - | - | - | - |
| 1777712738 | 13.33° C | 81% | 1019 hPa | - | - | - | - |
* Rain since midnight (hover to see other rain measurements)
** Current wind speed in m/s (hover to see current wind gust speed)